Location: ????????
(55.6333°N, 37.7000°E)
Time: 11:52:53
(UTC+00:00)

Cosmos 1110 Rocket - Pass Details

Date: 19 May 2025
Orbit: 748 x 777 km, 74.0° (Epoch: 13 June)

Event Time Altitude Azimuth Distance (km) Brightness Sun altitude
Rises 22:15:46 0° 331° (NNW) 3,273 8.1 -13.6°
Reaches altitude 10° 22:18:10 10° 331° (NNW) 2,340 7.2 -13.6°
Maximum altitude 22:23:30 83° 244° (WSW) 788 4.0 -13.4°
Enters shadow 22:28:25 12° 157° (SSE) 2,181 5.9 -13.2°
